Find Leasat 2

NORAD ID: 15236 Int'l Des: 1984-093 Owner: HCI Country: US operational
HEOCIRCULAR

当前视图

正在加载3D地球...

关于 Leasat 2

正在加载描述...

即将过境

Passes for default location (London). Set your location on the main map for personalized predictions.

高度历史

Loading altitude history...

两行轨道根数

1 15236U 84093C 26150.81467316 -.00000141 00000-0 00000+0 0 9997
2 15236 10.8281 312.2938 0029927 283.8629 78.2627 0.97456478127893
Epoch: May 30, 2026 • Age: 12 hours

当前状态

高度 36642.4 km
速度 3.04 km/s
星下点 1.51°N, 127.7°E
发射日期 Aug 30, 1984
运行时间 41.7 years
类型 other

技术详情

分类 Payload
质量 3231.00 kg
干质量 1230.00 kg
总质量 3231.00 kg
长度 4.00 m
直径 4.30 m
跨度 6.20 m
形状 Cyl + Ant
制造商 HSES
平台类型 HS-381
阶段状态 In Orbit
所有者/国家 HCI/US

Most Searched